Tulsa, OK

8:20 PM CDT on May 25, 2017 (GMT -0500)
Tulsa International

Weather History for KTUL - December, 2013

Change the Weather History Date:

Wednesday, December 4, 2013

  Actual Average Record
Temperature  
Mean Temperature 40 °F 42 °F  
Max Temperature 50 °F 52 °F 77 °F (1906)
Min Temperature 30 °F 32 °F 16 °F (2006)
Degree Days  
Heating Degree Days 25 23  
Month to date heating degree days 72 90  
Since 1 July heating degree days 773 726  
Moisture  
Dew Point 36 °F    
Average Humidity 78    
Maximum Humidity 93    
Minimum Humidity 63    
Precipitation  
Precipitation 0.00 in 0.08 in 1.65 in (1999)
Month to date precipitation 0.00 0.34  
Year to date precipitation 31.31 38.82  
Sea Level Pressure  
Sea Level Pressure 29.72 in    
Wind  
Wind Speed 12 mph (WNW)    
Max Wind Speed 23 mph    
Max Gust Speed 28 mph    
Visibility 7 miles    
Events Fog    
T = Trace of Precipitation, MM = Missing Value Source: NWS Daily Summary

Daily Weather History Graph

Daily Weather History Graph

Search for Another Location

Airport or City:

Trip Planner

Search our weather history database for the weather conditions in past years. The results will help you decide how hot, cold, wet, or windy it might be!

Date:

Astronomy

Dec. 04, 2013 Rise Set
Actual Time 7:19 AM CST 5:08 PM CST
Civil Twilight 6:50 AM CST 5:37 PM CST
Nautical Twilight 6:18 AM CST 6:08 PM CST
Astronomical Twilight 5:47 AM CST 6:40 PM CST
Moon 8:49 AM CST (12/4) 7:18 PM CST (12/4)
Length of Visible Light 10h 46m
Length of Day
9h 49m
Waxing Crescent, 4% of the Moon is Illuminated
Dec 4
Waxing Crescent
Dec 9
First Quarter
Dec 17
Full
Dec 25
Last Quarter
Jan 1
New

Hourly Weather History & Observations

Time (CST) Temp. Windchill Dew Point Humidity Pressure Visibility Wind Dir Wind Speed Gust Speed Precip Events Conditions
12:53 AM 46.0 °F 43.1 °F 44.1 °F 93% 29.53 in 5.0 mi ESE 5.8 mph - N/A   Clear
1:31 AM 48.0 °F - 46.0 °F 93% 29.53 in 3.0 mi SE 11.5 mph - N/A Fog Patches of Fog
1:36 AM 48.0 °F - 46.9 °F 96% 29.53 in 2.0 mi SE 9.2 mph - N/A   Mostly Cloudy
1:41 AM 48.0 °F - 46.9 °F 96% 29.53 in 0.8 mi SE 9.2 mph - N/A   Overcast
1:53 AM 48.9 °F - 46.9 °F 93% 29.52 in 0.2 mi SE 9.2 mph - N/A Fog Fog
2:06 AM 48.9 °F - 46.9 °F 93% 29.52 in 0.8 mi SE 8.1 mph - N/A   Mist
2:24 AM 48.0 °F - 46.9 °F 96% 29.53 in 1.0 mi SSE 8.1 mph - N/A   Overcast
2:34 AM 48.0 °F - 46.0 °F 93% 29.52 in 2.0 mi SSE 8.1 mph - N/A   Overcast
2:46 AM 46.9 °F - 46.0 °F 97% 29.52 in 3.0 mi SSE 8.1 mph - N/A   Overcast
2:53 AM 48.0 °F - 46.0 °F 93% 29.52 in 3.0 mi SSE 8.1 mph - N/A   Overcast
3:42 AM 46.9 °F - 45.0 °F 93% 29.51 in 4.0 mi SSE 6.9 mph - N/A   Overcast
3:53 AM 46.9 °F - 45.0 °F 93% 29.50 in 5.0 mi SSE 8.1 mph - N/A   Overcast
4:53 AM 48.0 °F - 45.0 °F 89% 29.50 in 8.0 mi South 10.4 mph - N/A   Overcast
5:53 AM 48.0 °F - 43.0 °F 83% 29.53 in 10.0 mi WNW 4.6 mph - N/A   Overcast
6:53 AM 46.9 °F - 43.0 °F 86% 29.56 in 9.0 mi South 5.8 mph - N/A   Overcast
7:53 AM 46.9 °F - 42.1 °F 83% 29.60 in 8.0 mi West 8.1 mph - N/A   Overcast
8:08 AM 48.0 °F - 42.1 °F 80% 29.61 in 8.0 mi West 12.7 mph - N/A   Overcast
8:32 AM 46.9 °F - 43.0 °F 86% 29.63 in 5.0 mi West 13.8 mph - N/A   Overcast
8:53 AM 46.9 °F - 43.0 °F 86% 29.65 in 5.0 mi West 12.7 mph 21.9 mph N/A   Overcast
9:53 AM 44.1 °F 36.5 °F 39.9 °F 85% 29.70 in 3.0 mi West 17.3 mph - N/A   Overcast
10:53 AM 42.1 °F 34.2 °F 37.9 °F 85% 29.74 in 5.0 mi WNW 16.1 mph - N/A   Overcast
11:41 AM 41.0 °F 33.5 °F 35.1 °F 79% 29.76 in 10.0 mi NW 13.8 mph - N/A   Overcast
11:53 AM 41.0 °F 33.5 °F 35.1 °F 79% 29.76 in 10.0 mi WNW 13.8 mph - N/A   Overcast
12:53 PM 41.0 °F 33.5 °F 33.1 °F 73% 29.76 in 10.0 mi WNW 13.8 mph - N/A   Overcast
1:53 PM 41.0 °F 34.7 °F 33.1 °F 73% 29.77 in 10.0 mi NW 10.4 mph - N/A   Overcast
2:53 PM 41.0 °F 33.5 °F 32.0 °F 70% 29.79 in 10.0 mi WNW 13.8 mph - N/A   Overcast
3:53 PM 41.0 °F 34.7 °F 30.9 °F 67% 29.81 in 10.0 mi NW 10.4 mph - N/A   Mostly Cloudy
4:53 PM 39.9 °F 31.8 °F 28.9 °F 65% 29.87 in 10.0 mi NW 15.0 mph - N/A   Overcast
5:53 PM 37.9 °F 30.0 °F 28.0 °F 68% 29.88 in 10.0 mi NNW 12.7 mph - N/A   Overcast
6:53 PM 36.0 °F 27.1 °F 27.0 °F 70% 29.92 in 10.0 mi NNW 13.8 mph - N/A   Overcast
7:53 PM 33.1 °F 23.4 °F 24.1 °F 70% 29.95 in 10.0 mi North 13.8 mph - N/A   Overcast
8:53 PM 33.1 °F 23.4 °F 23.0 °F 66% 29.98 in 10.0 mi NNW 13.8 mph - N/A   Overcast
9:39 PM 30.0 °F 20.0 °F 21.0 °F 69% 29.99 in 10.0 mi NNW 12.7 mph - N/A   Scattered Clouds
9:53 PM 30.0 °F 19.1 °F 21.0 °F 69% 30.01 in 10.0 mi NNW 15.0 mph - N/A   Scattered Clouds
10:21 PM 30.0 °F 21.1 °F 21.0 °F 69% 30.03 in 10.0 mi NW 10.4 mph - N/A   Mostly Cloudy
10:53 PM 30.0 °F 21.1 °F 19.9 °F 66% 30.06 in 10.0 mi NNW 10.4 mph - N/A   Overcast
11:53 PM 30.0 °F 17.5 °F 19.9 °F 66% 30.05 in 10.0 mi North 19.6 mph 25.3 mph N/A   Overcast